Wind_Speed
23 27 28 24 18 15 15 15 16 16 18 19 17 16 17 19 20 24 28 28 27 28 27 23 22 22 22 23 24 25 26 26 26 25 25 24 24 24 23 21 20 19 19 18 18 18 17 17 18 18 18 17 18 18 18 17 16 16 17 17 17 16 15 16 17 16 15 15 14 13 12 11 10 10 10 10 10 11 12 13 14 15 16 18 20
17 20 23 22 19 17 16 16 17 19 18 17 17 16 15 16 19 23 27 28 26 24 23 22 21 22 23 24 25 26 27 28 28 28 27 26 25 25 24 22 21 20 20 19 19 18 18 18 18 18 18 18 19 19 19 18 17 17 18 18 17 16 16 17 17 18 18 16 14 14 13 11 11 11 11 12 12 13 14 15 16 17 18 20 21
15 18 20 23 22 19 18 18 18 20 21 18 17 16 15 15 18 19 22 23 20 20 21 21 21 21 22 23 24 26 27 28 28 28 28 27 26 26 25 24 23 21 21 20 19 19 18 19 19 19 19 19 20 20 19 18 18 18 19 19 17 16 17 18 18 19 19 18 15 14 14 13 12 12 13 13 14 15 16 16 17 18 20 21 22
16 17 16 18 18 15 17 20 20 20 22 21 18 17 17 17 18 19 19 18 17 17 20 21 20 20 20 22 23 24 26 27 28 29 29 29 28 27 27 26 24 23 21 21 20 20 20 20 20 20 20 20 21 20 19 18 18 19 19 19 18 16 17 19 20 20 20 20 17 15 15 14 14 14 15 16 16 16 17 18 19 20 21 22 23
17 18 14 11 12 12 12 16 19 21 22 22 20 18 19 19 21 23 23 21 19 19 19 19 19 18 19 21 22 23 25 26 28 28 28 28 28 28 28 26 25 24 22 22 21 20 20 20 20 19 20 21 21 20 19 19 19 19 18 19 18 17 17 20 22 22 21 20 20 18 16 16 16 17 17 18 18 18 18 19 20 21 22 23 24
18 19 18 15 14 14 13 13 16 18 19 21 21 20 20 20 22 24 24 23 23 23 21 19 18 18 19 20 21 22 24 26 26 26 26 25 26 26 26 26 25 25 24 23 22 22 22 21 20 19 20 20 20 19 19 19 20 19 19 19 19 19 18 20 23 24 22 21 22 22 20 18 19 20 20 20 20 20 20 20 21 23 23 23 24
20 20 20 18 16 15 15 15 15 16 17 19 21 21 21 20 21 23 23 24 26 25 22 20 19 18 19 19 21 22 24 25 25 25 24 24 24 25 26 26 27 25 24 23 23 24 23 22 21 20 20 20 19 19 19 19 20 21 20 20 20 20 21 22 24 25 25 23 23 24 24 22 22 23 23 22 22 22 23 23 24 25 25 25 25
22 22 22 22 21 19 18 17 16 16 15 16 19 21 21 20 21 23 23 25 28 26 23 21 19 18 19 20 21 24 26 26 25 25 25 25 25 25 26 27 27 25 24 24 24 24 23 23 23 22 22 22 21 20 19 20 21 21 21 22 22 22 23 24 25 25 26 26 25 25 26 25 25 26 25 25 25 25 25 25 26 27 28 27 27
22 23 23 23 23 22 21 19 18 17 15 15 18 21 22 21 22 25 25 26 28 26 24 22 19 19 21 22 23 26 26 26 26 25 25 25 25 26 26 27 26 25 25 25 25 24 24 24 24 23 23 23 22 22 21 21 21 22 22 23 24 24 24 25 26 26 27 27 27 27 27 27 28 28 27 27 28 28 28 27 28 29 30 29 29
21 23 23 22 23 23 22 21 21 21 20 18 19 22 24 23 25 28 29 28 29 28 25 23 21 21 22 24 26 28 27 26 26 26 25 25 25 26 26 25 25 24 24 25 25 25 26 26 25 23 22 22 23 23 23 23 23 23 23 24 25 26 26 27 27 27 27 28 29 28 28 28 29 29 28 28 29 29 30 30 30 31 32 31 30
19 22 22 22 24 25 26 25 25 25 24 22 22 23 23 23 26 30 32 32 32 30 26 24 23 23 25 27 29 28 27 27 26 25 25 25 25 25 25 24 24 24 24 25 26 26 26 26 24 23 22 22 23 24 24 24 25 24 25 25 27 28 29 29 29 28 28 29 30 29 29 29 29 29 29 29 30 30 31 31 31 32 33 33 33
19 21 23 24 26 28 28 27 26 26 25 23 23 23 23 24 27 31 32 32 33 31 27 25 24 24 26 29 30 29 28 27 26 25 25 25 24 23 23 23 23 23 23 25 26 27 27 26 24 23 23 23 24 24 25 26 26 26 27 28 29 30 31 31 31 30 29 29 29 30 30 30 30 30 30 30 31 31 32 33 33 34 34 35 35
20 22 25 26 27 27 27 26 26 26 26 23 21 24 27 27 28 31 32 31 31 30 27 25 25 25 26 29 31 31 29 27 25 24 24 24 23 22 22 22 22 21 22 23 25 25 26 25 24 24 24 25 25 26 28 29 29 29 29 29 30 32 32 32 32 31 30 30 30 30 30 31 31 31 32 32 33 33 34 35 36 37 37 38 39
22 23 26 27 27 27 28 27 28 28 27 25 23 26 29 29 30 32 32 31 31 29 27 25 24 25 26 28 30 31 29 27 26 25 24 24 24 23 22 22 21 20 20 22 23 24 25 24 24 25 26 27 28 29 30 30 31 31 31 31 32 32 33 33 32 32 32 32 32 32 32 32 33 34 34 35 35 35 36 37 38 39 40 42 42
22 22 24 25 26 27 28 28 28 29 28 27 26 27 28 30 31 31 31 33 32 28 25 24 25 26 27 29 30 30 28 26 26 26 26 26 25 25 24 23 22 21 21 22 23 24 24 24 25 26 27 28 29 30 30 31 32 32 32 33 34 34 33 33 34 33 33 33 34 34 35 35 35 36 37 36 37 38 39 39 40 41 43 44 45
22 22 23 24 25 27 28 28 29 30 29 28 27 27 28 30 31 30 29 32 33 30 27 26 25 26 27 29 29 29 26 25 26 27 27 28 27 27 26 25 25 24 24 24 25 25 26 26 26 27 27 28 30 31 31 32 33 34 34 35 35 35 35 35 34 34 34 34 34 35 36 37 37 38 37 36 38 41 42 42 43 44 45 46 46
22 22 22 24 25 27 28 30 31 32 31 29 27 27 29 32 32 31 29 31 33 32 29 27 26 27 28 29 29 28 26 26 27 28 29 29 28 28 28 28 28 28 27 27 28 28 28 28 28 29 30 30 31 32 33 34 34 35 35 35 36 36 36 36 35 35 34 35 35 35 36 37 37 38 38 38 39 42 43 44 45 46 47 47 46
23 23 23 23 25 26 27 28 30 33 32 31 29 29 30 32 33 34 32 31 32 33 30 28 28 29 30 31 30 28 27 28 28 30 31 29 28 28 28 28 29 30 30 30 30 30 30 29 30 31 32 34 35 35 35 35 35 35 35 36 36 37 37 36 36 36 35 35 36 36 36 37 38 39 40 41 42 44 45 46 46 47 47 47 47
22 23 23 23 23 22 22 23 26 31 34 34 31 31 31 31 33 36 36 33 32 32 32 32 31 31 33 34 33 30 29 28 29 30 30 29 29 28 29 29 30 30 31 31 32 33 33 33 32 32 35 37 39 39 39 38 36 35 35 36 36 36 36 36 36 36 36 36 36 36 37 38 39 40 42 43 45 46 46 46 46 46 47 48 48
21 22 22 21 19 18 21 26 28 30 36 36 32 32 34 33 33 36 37 37 35 34 33 33 32 33 35 36 35 33 30 29 29 29 27 27 28 29 30 32 32 31 31 31 32 34 36 36 35 35 36 38 40 41 41 40 38 36 35 35 35 36 36 37 37 37 37 37 37 37 39 40 41 43 44 45 46 46 46 46 47 48 49 50 50
21 22 21 19 18 17 20 32 36 37 42 42 39 38 38 34 34 36 37 39 38 36 35 34 34 36 39 40 39 35 31 31 31 29 28 28 30 31 33 34 34 34 33 33 34 36 37 37 36 35 35 37 39 41 41 41 39 37 35 35 35 36 37 37 37 37 37 37 38 39 41 42 43 44 44 45 46 47 47 48 50 51 51 51 52
22 22 21 18 17 18 17 26 34 39 44 45 43 42 40 37 37 38 40 42 42 40 38 37 37 39 41 42 41 36 31 30 31 32 31 32 34 36 36 35 35 35 35 35 36 36 35 35 35 33 33 36 40 41 40 39 38 36 35 35 35 36 36 37 38 38 37 38 39 41 42 44 44 44 44 45 46 47 48 50 51 53 54 56 57
22 22 21 18 17 18 18 18 24 30 36 38 40 42 42 41 39 39 42 44 44 43 42 40 38 38 39 42 42 39 34 32 32 34 36 37 38 38 37 37 37 37 37 37 35 33 32 32 32 32 33 35 38 39 38 37 36 35 34 34 35 36 37 38 39 39 40 41 42 44 44 45 45 44 45 46 47 49 50 53 55 57 58 59 60
24 23 22 20 19 19 19 19 20 22 26 31 37 43 43 42 41 43 45 44 43 44 45 43 40 38 39 40 40 40 40 38 36 37 39 39 38 37 37 38 38 37 37 37 35 34 33 32 32 33 33 33 33 33 34 34 34 35 35 36 37 38 39 40 40 41 42 44 45 45 45 45 46 46 47 49 51 53 55 57 58 59 60 61 62
24 24 23 22 21 21 21 21 21 20 19 21 28 36 40 43 46 46 43 40 39 42 43 43 42 40 39 39 39 39 41 40 38 38 40 39 39 39 40 40 39 36 35 34 33 32 32 33 32 33 34 34 33 33 33 33 34 35 36 37 38 39 40 41 42 42 44 45 46 47 47 48 49 50 51 52 54 55 57 58 60 61 62 63 65
24 24 23 22 22 22 23 24 25 24 21 18 19 24 28 33 37 38 34 32 33 35 37 38 38 38 39 40 39 38 37 37 37 38 39 39 38 38 38 37 36 33 32 31 30 31 31 32 31 32 34 36 36 37 36 36 35 37 38 39 40 41 42 43 44 45 46 47 48 49 50 51 51 52 53 54 55 57 59 60 62 64 66 67 68
26 25 24 24 24 24 25 26 26 26 25 21 20 20 21 22 24 25 26 26 27 29 32 33 34 35 36 35 35 34 34 35 35 35 34 34 33 33 34 33 32 31 31 32 33 35 36 37 37 38 39 39 39 39 39 40 40 41 42 43 44 45 45 46 47 48 48 48 49 49 50 51 52 53 54 56 58 59 61 63 65 67 69 70 72
26 25 25 24 24 25 26 27 27 27 26 24 22 21 21 22 22 23 23 23 24 24 25 26 28 29 30 30 31 31 32 32 32 32 33 33 32 32 32 32 31 31 32 34 37 39 40 41 42 43 42 42 41 42 42 43 44 44 45 46 46 46 47 47 47 47 47 48 48 49 50 51 53 54 56 58 60 62 64 66 68 70 71 73 74
27 26 26 26 27 26 26 27 28 28 28 28 26 24 23 23 23 24 24 24 25 24 24 25 26 27 27 26 27 27 28 28 29 31 34 34 33 33 33 33 34 34 35 36 37 39 40 41 41 42 42 43 44 44 45 46 46 46 46 46 46 46 46 46 46 46 47 48 49 50 52 53 55 57 59 61 63 65 67 69 70 72 73 74 74
34 32 31 31 32 32 31 30 30 30 30 31 30 29 28 26 26 26 26 26 27 27 27 28 29 29 30 29 29 30 31 32 32 33 34 35 35 35 35 35 36 37 38 39 39 40 41 41 42 43 44 44 45 46 47 47 47 47 47 46 46 46 46 47 47 48 49 50 51 53 55 56 58 60 62 64 65 67 69 70 72 73 74 74 75
39 39 37 35 36 37 38 37 35 34 34 34 33 32 31 30 29 29 29 29 29 29 29 29 30 31 32 33 33 34 35 36 37 38 38 39 39 38 38 39 39 40 41 41 42 43 43 44 44 44 45 45 45 45 45 45 45 45 45 46 46 46 47 48 49 50 51 53 54 56 57 59 60 62 64 65 67 69 70 71 73 74 74 74 74
41 41 40 39 38 38 39 40 39 38 37 37 37 36 35 33 31 31 31 31 30 30 30 30 31 32 32 33 34 34 34 36 37 38 39 39 40 40 41 42 42 42 42 43 42 42 42 42 43 43 43 43 43 43 43 43 43 44 45 46 46 47 48 49 51 52 53 54 56 57 59 60 62 63 65 67 68 69 70 71 72 72 72 72 71
41 40 40 40 39 38 38 39 39 39 38 38 38 39 39 38 37 36 35 35 34 34 34 34 35 35 34 34 34 35 36 37 38 40 40 41 41 42 42 43 43 42 42 41 40 40 39 39 40 40 40 40 41 41 42 43 43 44 45 46 47 48 49 50 52 53 54 55 57 58 60 61 63 65 66 67 68 69 69 69 69 69 68 67 66
41 40 39 39 39 38 38 38 38 38 37 37 38 39 40 41 41 40 40 39 39 39 39 40 40 40 39 38 38 38 38 39 40 41 41 41 42 42 42 42 41 40 39 38 37 36 36 37 37 38 39 40 41 42 43 44 44 45 46 47 48 49 50 51 52 54 55 56 58 59 61 62 64 65 65 66 66 66 66 66 65 64 63 62 60
41 40 40 40 40 40 39 38 37 37 37 36 36 36 37 38 39 39 39 39 39 39 40 40 41 41 42 43 43 42 41 39 38 38 38 38 38 38 38 38 37 37 36 36 36 36 37 38 39 40 41 42 43 43 44 45 46 46 47 48 49 50 50 52 53 54 56 57 59 60 61 62 62 63 63 63 63 63 63 61 60 58 56 55 53
41 41 41 41 41 42 41 40 39 38 38 37 36 35 35 36 36 37 37 37 37 38 38 38 39 39 40 41 41 41 40 39 39 38 38 37 36 36 36 36 36 36 37 37 38 39 40 41 41 42 43 44 44 45 45 46 46 47 47 48 49 50 51 52 54 55 57 58 58 59 60 60 60 60 60 60 59 58 57 55 53 51 49 48 47
43 43 42 42 42 42 43 42 41 41 40 39 39 38 37 36 36 37 37 37 37 38 38 38 38 37 37 38 38 39 39 39 39 39 39 38 38 38 38 38 38 38 39 40 41 41 41 42 43 43 44 44 45 45 45 45 46 46 47 48 49 51 52 53 54 55 56 57 57 57 57 58 58 57 56 55 53 51 49 48 46 45 44 43 42
45 45 44 44 43 43 44 44 44 43 43 42 42 42 41 41 40 40 39 39 39 39 39 39 39 38 38 39 39 40 40 40 40 40 40 40 41 41 41 41 41 41 42 42 42 42 42 43 43 44 44 44 44 44 45 45 46 47 48 49 50 51 52 52 53 54 54 55 55 55 55 54 53 52 50 49 47 45 44 44 43 42 41 40 39
45 45 45 45 45 45 45 46 46 46 45 45 44 44 43 43 43 42 42 41 41 41 41 41 40 40 40 41 41 41 41 41 41 42 42 42 42 43 43 42 42 42 42 42 42 42 42 43 43 43 43 43 43 44 44 45 46 47 48 49 50 51 51 52 52 52 52 52 52 51 51 49 48 46 44 43 42 42 41 41 41 40 39 37 36
40 42 43 45 45 45 46 46 47 46 46 46 45 45 44 43 43 43 42 42 42 42 42 41 41 40 40 40 41 41 41 41 41 41 41 42 42 42 42 42 42 42 42 42 41 41 41 41 41 41 41 42 42 43 44 45 46 47 48 49 49 50 50 50 50 50 50 49 49 48 47 45 44 42 41 40 39 39 39 38 38 38 36 34 33
34 36 38 40 41 43 45 46 46 46 46 46 46 46 45 44 43 43 43 43 42 42 41 41 41 41 40 40 40 40 40 40 40 40 40 40 40 41 41 41 41 41 41 40 40 40 40 40 40 41 41 41 42 43 44 45 46 46 47 47 47 47 47 47 47 47 47 47 46 44 43 41 40 39 38 38 37 37 37 36 36 35 33 31 30
30 31 33 34 35 37 40 42 44 45 46 46 47 47 47 46 45 44 44 44 44 43 42 42 42 42 41 41 41 41 40 40 40 40 40 40 40 40 40 40 40 40 40 40 40 40 40 40 40 40 41 41 42 43 43 44 44 44 44 44 44 45 45 45 46 46 45 44 42 41 40 39 38 37 36 36 35 35 34 34 33 32 30 28 28
26 27 28 29 30 31 33 36 38 40 42 44 46 47 48 48 47 46 45 45 44 44 44 43 43 42 42 42 42 42 41 41 41 41 41 41 41 40 40 40 40 39 39 39 39 39 39 39 40 40 40 41 41 41 42 41 41 41 42 42 42 43 44 44 44 43 42 41 39 38 37 37 36 35 34 34 33 33 32 32 31 29 27 26 26
22 23 24 25 26 27 28 29 31 33 35 38 40 42 44 46 47 47 46 46 45 45 45 44 44 43 43 43 42 42 42 41 41 41 41 41 41 40 40 39 39 39 38 38 38 38 38 38 39 39 39 39 39 39 39 39 39 39 40 40 41 42 42 42 41 40 38 37 36 36 35 34 33 32 31 31 30 30 31 31 29 27 26 26 26
20 21 21 22 22 23 24 24 25 27 29 31 33 35 38 40 42 43 44 44 44 44 44 44 44 43 43 43 42 42 42 41 41 41 40 40 39 39 38 38 37 37 37 37 37 37 37 37 37 37 36 36 36 36 36 36 37 38 38 39 40 40 39 39 38 36 36 35 34 33 33 31 30 30 29 28 28 29 29 29 27 25 25 26 25
20 20 20 20 20 21 21 21 22 23 24 25 26 28 30 32 34 37 38 39 40 40 41 41 41 41 41 41 40 40 40 40 39 39 38 37 37 36 36 35 35 35 35 35 35 34 34 34 34 34 34 33 33 33 33 34 35 36 37 37 38 37 36 35 34 34 33 32 32 31 30 29 28 27 27 27 27 28 28 27 25 24 24 25 24
20 20 20 20 20 19 19 19 20 21 22 22 22 23 24 25 27 29 31 33 34 35 36 36 37 37 37 37 36 36 36 36 35 35 34 34 33 33 33 33 33 33 33 32 32 32 32 32 31 31 30 30 30 31 32 33 34 35 35 35 35 34 33 32 31 31 30 30 30 29 28 27 26 25 25 26 26 27 26 25 23 22 22 23 22
19 19 20 20 20 19 19 19 20 21 21 22 22 22 22 22 23 23 24 25 27 29 30 31 32 32 32 32 32 32 32 32 32 31 31 31 31 31 31 31 31 30 30 30 30 30 29 29 28 27 27 27 28 29 30 31 32 32 32 32 31 31 30 29 29 28 28 28 27 27 26 25 24 24 24 25 25 25 24 22 21 20 21 22 20
17 17 18 18 18 19 18 18 19 20 21 22 22 22 22 22 21 21 20 21 22 24 26 27 28 28 29 29 29 29 29 30 30 30 30 30 29 29 29 29 29 29 29 29 28 28 27 26 25 24 25 26 27 28 29 29 30 30 29 29 28 27 27 26 26 26 26 25 25 24 24 23 22 22 23 23 23 22 21 20 19 18 19 20 19
17 16 16 16 16 17 17 18 18 19 19 20 21 21 21 21 21 20 20 19 20 21 23 25 25 26 26 27 28 28 28 29 29 28 28 28 28 28 28 28 28 28 28 27 26 25 24 23 23 23 23 24 26 26 27 27 27 27 26 26 25 25 24 24 24 24 24 23 23 22 22 21 21 21 21 21 20 20 19 19 18 17 17 18 17
16 15 15 15 15 15 15 16 17 17 18 19 19 19 20 21 21 21 20 19 19 20 22 23 24 25 25 26 27 27 27 27 27 27 27 27 27 27 27 27 27 26 26 25 24 23 22 22 22 22 22 23 24 25 25 25 25 24 24 23 23 23 23 23 23 23 22 22 21 21 20 20 20 19 19 18 18 17 17 17 17 16 16 16 15
Wind_Direction
234 231 227 225 226 231 237 236 235 242 246 240 231 227 229 232 231 228 225 227 228 219 209 205 204 204 210 215 219 224 227 229 230 231 231 231 230 232 233 234 236 239 244 245 245 245 243 242 241 240 240 240 240 240 240 238 235 230 226 224 226 227 224 225 234 245 250 248 249 252 254 256 258 261 264 264 262 262 263 264 265 267 268 268 267
247 242 235 232 233 235 236 236 236 239 244 241 230 223 227 235 236 230 228 231 230 217 208 207 206 206 210 214 218 222 227 230 231 232 233 232 232 233 234 237 240 244 246 246 245 242 238 237 238 239 240 240 240 240 240 238 235 228 223 222 225 227 227 228 234 245 254 256 255 258 262 264 264 266 266 266 265 264 264 265 265 266 268 269 269
254 250 241 231 233 239 238 238 242 244 242 237 228 221 222 234 237 223 215 220 220 212 207 206 206 209 213 217 220 223 227 230 233 234 234 234 235 236 238 240 243 245 245 244 242 239 235 233 233 236 238 239 239 239 239 236 231 224 220 222 224 226 230 233 237 245 256 261 260 261 266 270 271 272 271 268 266 267 267 267 268 270 271 272 273
267 268 253 224 225 242 244 240 243 247 241 229 221 219 217 223 228 218 207 209 212 210 207 204 205 211 217 222 226 228 229 231 233 234 235 235 237 239 242 244 245 244 243 243 242 238 233 231 231 232 236 238 239 240 237 232 226 221 220 222 225 230 232 234 238 246 255 262 263 262 266 272 275 275 274 272 270 270 271 271 272 273 274 274 275
282 283 278 253 250 260 251 240 240 244 240 227 219 219 217 218 223 224 221 221 223 219 212 206 205 211 220 225 229 231 232 233 234 235 236 237 238 240 243 244 243 243 245 247 243 236 230 230 230 231 234 236 237 237 234 230 228 227 225 225 228 235 236 234 239 248 253 258 264 266 267 271 275 274 273 275 275 275 275 277 277 276 275 276 277
290 289 291 293 287 275 262 252 243 239 235 226 221 222 222 221 224 226 222 222 227 225 215 208 206 210 219 225 229 232 234 234 235 235 236 237 237 239 242 243 244 246 250 249 242 233 227 226 229 231 234 237 237 235 232 231 233 236 235 234 234 238 238 237 242 249 253 256 262 268 270 270 273 274 274 275 277 279 279 279 279 277 276 277 277
292 289 285 283 282 275 264 253 241 232 228 225 224 224 225 227 229 228 222 221 228 227 217 209 207 210 218 224 228 232 233 234 234 234 235 236 238 241 244 246 249 251 252 249 243 235 229 226 227 230 234 238 239 237 234 234 237 239 240 241 241 241 241 240 243 249 253 254 257 263 268 270 271 273 274 274 275 277 278 279 278 278 277 276 275
288 286 281 276 275 275 271 259 242 234 231 228 227 225 226 231 230 228 227 226 228 226 219 213 209 211 218 223 228 232 234 235 235 235 237 240 244 248 249 251 253 252 250 247 242 237 232 230 229 230 232 237 240 240 238 237 239 240 243 245 246 245 244 245 246 249 252 254 255 259 264 266 267 269 272 274 275 274 275 276 276 277 277 277 277
280 279 279 281 281 280 279 268 248 241 245 246 240 232 230 231 225 222 228 233 231 227 221 216 212 212 218 223 228 233 236 236 237 239 242 246 249 250 251 252 252 250 247 244 241 236 234 234 234 234 235 239 242 244 243 243 243 244 246 250 252 252 250 249 250 251 254 256 257 258 261 264 266 268 270 273 275 276 277 277 277 277 278 279 279
274 273 274 277 278 276 275 266 251 250 255 255 250 240 235 234 227 223 227 233 234 230 223 217 214 214 218 223 228 234 236 238 241 244 247 249 249 249 250 251 251 249 246 243 241 238 236 237 238 239 241 243 248 251 250 249 249 249 249 252 254 255 253 251 251 251 254 257 259 259 261 263 266 268 271 272 274 276 277 278 278 278 279 280 280
266 268 268 267 268 268 266 260 253 253 255 255 252 241 233 230 226 226 229 232 232 232 226 219 217 216 218 224 230 234 236 238 242 246 248 248 248 249 250 251 249 246 243 241 240 239 239 241 242 244 247 248 251 254 256 256 255 255 254 253 254 254 255 255 254 253 254 257 261 263 264 265 267 269 271 272 273 274 275 276 276 276 277 278 278
260 261 262 261 263 265 262 257 254 253 254 258 254 239 228 223 220 226 233 232 229 229 227 221 219 218 219 225 232 236 237 239 244 247 248 247 247 250 252 252 249 243 239 237 236 238 241 243 245 247 250 251 252 254 256 256 256 255 253 253 253 254 255 256 258 258 258 259 262 266 268 269 270 271 272 273 273 273 274 274 274 274 274 274 273
258 256 258 261 263 264 261 258 258 255 254 257 252 235 228 223 218 225 233 230 226 227 226 222 222 222 223 227 233 239 241 242 245 247 246 247 247 250 253 254 250 242 235 233 233 236 241 245 247 248 249 251 253 254 256 257 257 256 255 255 255 255 256 257 259 261 263 263 263 263 265 267 269 269 270 269 270 270 271 272 272 273 274 274 274
265 258 257 260 261 261 259 258 258 255 252 251 244 231 227 225 222 226 228 225 224 224 221 221 224 227 230 231 235 242 244 243 246 247 246 248 250 251 252 253 251 242 233 230 232 235 240 244 248 252 254 255 256 256 258 260 261 261 260 258 257 256 257 258 260 261 263 264 264 265 264 265 265 266 267 268 269 271 272 273 275 277 278 278 279
274 268 263 261 259 257 256 256 254 252 248 245 241 235 230 225 223 226 226 222 221 219 216 222 228 231 233 234 236 243 247 244 245 247 246 245 247 249 250 251 251 246 238 232 233 237 240 245 250 255 260 262 262 262 261 262 262 263 262 260 259 259 259 260 262 263 264 266 268 270 270 269 269 269 271 274 276 277 279 281 282 283 284 284 285
275 273 269 266 263 258 254 251 249 249 246 242 240 237 232 226 222 224 227 224 220 217 217 223 230 234 238 239 238 242 247 247 246 247 245 243 243 245 248 251 251 250 246 243 242 243 245 248 252 255 259 262 264 264 263 262 262 262 262 262 262 262 261 262 263 265 266 268 269 271 272 273 274 275 276 278 278 280 284 286 287 287 288 289 289
276 274 270 266 263 259 255 249 244 244 244 240 240 237 230 225 222 222 227 228 224 223 223 224 229 236 241 242 240 240 244 247 248 247 247 246 245 244 246 249 252 252 251 250 250 250 250 251 252 253 255 258 260 262 262 262 262 262 262 262 261 262 262 263 264 266 268 269 270 270 271 273 274 275 277 278 278 280 284 287 287 288 288 288 288
278 278 275 272 264 256 255 250 239 237 240 238 237 236 230 225 222 222 224 228 228 227 226 227 231 236 237 238 240 242 244 245 247 249 250 251 253 251 248 247 249 252 253 253 254 254 253 253 254 256 257 259 260 261 262 263 262 262 262 261 261 262 263 265 268 271 272 272 272 272 272 273 275 276 278 280 281 283 285 286 286 286 286 285 285
278 280 282 284 277 267 263 255 235 227 233 237 236 235 233 228 225 222 220 222 226 226 225 226 230 234 234 234 237 242 244 242 244 247 250 253 257 259 256 251 248 248 251 253 255 256 255 254 254 258 262 264 264 263 263 264 264 263 262 262 263 264 266 269 272 274 275 274 274 274 275 276 278 280 281 283 284 285 285 285 285 285 284 284 284
276 280 284 287 288 282 265 252 239 225 226 233 236 235 232 228 224 222 221 222 225 228 228 229 231 233 234 236 239 242 243 241 241 245 249 254 258 259 259 258 256 254 254 255 257 259 260 259 258 258 261 265 268 267 265 265 266 265 263 263 264 265 267 270 273 274 274 273 273 274 276 278 280 281 283 284 284 284 284 284 284 285 285 285 284
275 278 283 283 286 283 250 232 231 227 221 220 223 225 226 226 223 222 224 225 226 230 232 232 231 231 233 235 237 239 240 240 240 241 245 249 252 253 254 257 260 261 260 259 258 258 260 261 260 259 261 265 268 268 266 264 265 266 266 265 265 266 267 269 270 270 270 271 273 275 276 278 279 280 281 281 281 282 283 283 284 284 283 283 282
274 276 281 278 277 282 256 221 216 219 217 215 214 213 217 222 222 222 225 226 226 228 232 233 233 231 231 232 233 235 239 241 241 241 242 244 246 247 249 251 253 256 257 256 254 253 254 257 259 261 265 267 267 267 266 265 265 266 267 267 267 266 266 266 266 266 267 269 271 273 274 276 277 277 278 278 279 281 282 282 282 281 281 281 282
272 272 274 270 264 271 267 240 221 217 217 219 219 216 217 222 223 225 228 227 226 227 230 232 234 232 232 234 236 236 239 242 243 243 243 242 242 244 247 250 251 253 253 253 252 251 251 254 258 262 264 265 265 265 265 265 265 266 266 266 266 265 265 264 265 266 267 269 271 273 275 276 277 278 277 278 279 280 281 280 281 281 282 283 283
268 267 266 263 257 256 254 248 239 228 222 222 221 217 218 222 225 226 228 229 231 234 234 232 233 234 236 240 241 240 242 245 246 244 243 244 244 246 249 251 251 250 250 252 253 252 251 251 253 255 256 258 259 260 261 263 265 266 267 267 268 268 267 267 267 268 270 272 274 275 276 277 278 278 278 279 279 280 281 281 282 283 284 285 285
260 262 262 259 256 252 249 245 244 240 234 226 218 212 213 217 223 228 234 237 239 240 237 234 235 239 243 245 246 245 245 245 243 241 243 244 244 245 247 248 249 249 251 253 254 253 253 252 251 251 252 254 255 257 260 263 265 267 268 268 268 268 268 269 269 271 273 274 275 277 277 278 280 280 281 281 282 282 283 284 285 286 287 287 287
252 252 254 255 254 252 250 250 252 252 251 246 234 224 219 220 224 230 237 239 237 236 237 238 239 242 245 247 248 245 243 241 238 236 239 241 242 243 246 247 248 248 248 248 247 246 246 246 247 249 251 255 258 260 261 263 263 264 264 265 266 268 270 272 273 274 275 276 277 278 279 281 282 283 284 284 285 285 286 286 287 287 287 287 287
260 255 254 255 253 250 249 250 253 256 257 254 247 241 237 234 232 233 234 234 233 234 235 238 239 241 242 243 242 239 237 238 238 239 242 247 251 253 252 251 250 246 241 239 239 240 242 244 247 251 254 256 258 259 260 261 262 262 264 266 268 270 272 273 274 275 276 277 278 280 281 282 283 283 284 285 285 286 286 286 287 287 287 287 287
265 263 260 259 256 252 249 249 250 254 257 257 252 245 241 239 238 239 238 238 237 235 234 235 236 236 236 237 239 239 239 238 240 245 251 256 257 256 254 253 252 250 246 243 242 243 246 248 251 253 255 257 258 259 261 263 264 265 267 269 271 272 273 274 275 276 277 278 279 280 281 282 283 284 285 286 286 287 287 288 288 288 288 289 289
260 259 255 252 252 252 251 252 253 254 256 258 257 253 248 244 242 243 243 244 244 243 240 239 237 236 235 234 235 237 239 240 242 247 252 254 254 254 254 254 255 255 253 251 250 250 251 253 254 255 257 259 261 263 264 265 266 268 270 271 272 274 275 276 277 277 279 280 281 282 283 284 286 287 287 288 289 289 289 289 290 290 290 290 291
262 261 256 250 247 249 251 253 255 257 259 261 263 261 257 252 250 248 247 247 247 247 246 245 244 243 243 241 238 238 241 244 246 247 249 251 252 253 253 253 254 255 255 255 256 257 257 258 260 261 262 263 264 265 266 267 269 270 272 273 274 275 277 278 279 280 282 283 285 286 287 288 289 289 289 290 290 290 290 291 291 291 291 292 292
266 266 264 258 251 249 250 252 253 255 257 259 261 262 261 260 259 257 254 251 249 248 248 249 249 249 249 249 248 248 249 252 253 254 255 256 256 257 256 256 256 257 258 259 260 261 262 263 265 266 266 267 268 269 270 270 271 272 273 274 276 277 278 280 282 283 285 286 287 288 288 289 289 290 290 290 290 291 291 291 292 292 292 293 293
265 266 266 264 259 255 255 255 255 255 254 253 252 252 252 254 255 257 257 255 253 252 251 252 254 254 254 254 255 256 257 259 259 260 260 261 260 259 258 257 257 258 259 260 262 263 265 266 267 268 269 269 270 271 272 273 273 275 276 277 278 280 281 282 284 285 286 287 288 288 289 289 290 290 290 290 290 290 291 291 292 293 293 294 294
262 263 263 264 263 261 259 259 259 258 256 254 252 250 249 249 249 250 251 251 252 252 252 252 253 254 255 255 255 256 257 257 257 257 257 257 257 257 255 255 257 258 260 262 263 265 266 267 268 269 270 271 272 273 274 275 276 277 278 280 281 282 283 284 285 286 287 288 288 289 289 289 290 290 290 290 290 291 291 292 293 294 294 295 295
259 260 261 262 262 262 260 259 259 259 258 256 254 252 251 251 252 252 253 253 253 253 253 253 252 253 253 254 254 254 254 254 253 253 253 253 254 254 256 257 259 262 264 265 266 267 268 269 271 272 273 273 274 275 276 277 278 279 280 281 282 283 285 286 286 287 288 288 289 289 289 289 290 290 290 291 291 292 293 293 294 295 295 295 295
257 257 258 260 261 261 260 259 258 258 257 257 255 254 254 253 254 255 256 256 256 256 255 255 254 254 254 254 256 258 259 259 259 259 258 258 258 259 260 261 263 265 266 267 268 270 272 273 274 274 275 275 276 277 278 279 280 281 282 283 284 285 286 286 287 287 288 288 289 289 289 289 290 290 291 292 293 294 294 295 295 295 294 295 296
254 254 255 257 259 259 260 259 258 256 255 255 256 256 255 255 255 255 255 256 256 256 256 256 255 255 255 255 256 258 260 261 262 263 264 265 265 265 265 265 266 267 268 269 270 271 273 273 274 274 275 276 277 278 278 279 280 281 282 282 283 284 285 285 286 287 287 288 288 289 290 290 291 292 293 294 294 294 294 294 295 296 297 299 299
253 252 252 253 255 257 258 259 258 256 254 254 254 256 257 257 257 257 256 256 256 257 258 257 257 257 258 258 258 259 260 261 262 264 266 268 268 269 269 269 269 269 269 270 270 271 271 272 272 273 274 275 276 276 277 278 279 279 280 282 282 283 284 285 285 286 287 288 289 290 291 292 293 293 294 294 294 294 295 296 298 300 302 302 301
254 253 253 252 253 255 256 257 257 257 256 256 256 257 258 259 259 259 258 258 257 257 258 259 259 259 260 260 260 261 262 263 264 265 266 267 268 268 269 269 269 269 269 269 270 270 270 271 271 272 272 273 273 274 275 276 277 279 280 281 282 283 284 285 286 287 288 289 290 291 292 293 294 294 295 295 296 298 299 301 303 304 304 303 302
257 255 254 253 253 253 254 255 257 258 259 259 259 259 259 260 260 259 259 258 258 258 258 259 259 260 261 261 262 262 263 264 265 265 265 265 265 266 267 267 267 267 268 269 269 269 270 270 270 271 271 271 272 273 275 276 278 279 280 282 283 284 284 285 286 287 288 289 291 292 294 295 296 296 297 297 298 300 301 303 304 304 304 303 301
262 259 257 255 254 253 254 254 255 257 258 259 259 259 259 259 259 259 259 258 258 258 259 259 259 259 260 260 261 262 263 263 264 263 264 264 264 265 265 266 267 267 267 268 268 269 269 269 269 269 270 272 273 275 276 278 279 280 280 281 282 283 284 285 286 288 290 292 294 296 297 297 296 296 297 297 298 299 301 302 303 304 304 302 301
266 264 261 259 256 255 254 253 253 254 255 256 258 258 258 257 257 257 257 257 257 257 257 258 259 259 258 259 259 260 261 262 262 262 263 263 263 263 264 264 265 266 266 267 267 267 267 268 269 270 271 273 275 276 277 278 279 279 280 281 282 283 284 287 289 292 294 296 297 297 296 295 295 295 295 296 297 298 299 301 303 304 304 303 303
269 267 265 263 261 259 257 255 254 253 253 253 254 255 255 255 255 254 255 255 256 255 255 255 255 256 256 257 257 258 258 259 259 260 261 261 262 262 262 263 263 264 264 265 265 266 267 268 270 271 273 274 275 277 277 278 279 279 280 281 283 286 288 291 293 295 296 296 296 295 294 293 293 294 295 295 296 298 299 302 304 305 303 303 305
274 272 270 268 266 265 263 261 258 257 255 254 253 253 253 253 253 253 253 253 253 254 253 253 252 252 252 253 254 255 256 256 257 258 258 259 260 261 261 262 262 263 264 264 266 267 268 270 271 272 273 275 276 276 277 278 279 281 283 285 287 290 292 294 295 296 295 295 294 293 292 293 293 293 294 296 298 300 302 304 306 306 303 304 307
280 278 276 273 271 270 269 268 265 263 262 259 257 256 255 254 253 253 253 252 252 252 252 252 251 250 250 249 250 251 252 254 255 255 256 257 258 259 260 261 262 262 264 265 266 267 268 270 271 272 273 275 276 277 278 280 281 283 286 288 291 292 294 294 294 294 293 292 291 291 291 291 292 293 295 297 300 302 305 307 308 306 303 305 308
285 283 281 279 276 274 273 274 273 271 269 266 264 262 260 258 256 255 255 254 253 253 252 252 252 251 251 250 250 250 251 252 253 254 255 256 257 258 259 260 261 262 263 264 265 267 268 269 271 272 274 275 277 278 280 282 284 287 289 290 292 292 292 291 291 290 289 289 289 289 289 290 292 294 297 299 302 305 308 309 308 304 302 304 307
293 289 286 283 281 279 278 277 277 275 274 273 271 269 266 264 261 259 258 257 257 256 255 254 254 253 253 253 252 252 253 253 254 255 256 257 258 258 259 260 261 261 262 263 265 266 268 270 271 273 274 276 278 280 282 285 287 289 290 291 291 290 289 289 288 288 287 288 288 289 290 291 293 296 299 301 305 308 310 309 307 303 302 304 306
300 295 290 287 284 282 279 277 276 276 277 277 276 275 273 270 266 263 261 259 259 258 257 256 255 255 255 255 255 255 255 256 256 257 257 258 258 259 259 259 260 260 261 263 264 265 267 269 271 273 275 277 280 282 285 287 288 289 289 289 289 288 288 287 288 288 288 289 290 290 291 293 295 298 301 304 308 310 310 308 305 302 303 306 306
308 301 296 292 289 286 282 278 276 276 276 277 277 277 277 274 271 267 264 261 260 259 259 258 257 256 255 255 255 255 255 256 256 256 256 257 257 257 257 257 257 258 259 260 262 264 267 269 271 274 276 279 282 285 287 288 288 288 288 287 287 287 287 288 289 290 290 290 291 291 292 294 297 300 303 307 309 310 309 307 304 302 305 308 306
314 308 303 299 296 293 291 287 283 280 279 278 278 277 276 275 273 271 268 265 262 259 257 256 256 255 255 255 255 255 255 255 255 255 255 255 255 254 253 253 253 255 256 259 261 264 267 269 270 273 278 282 286 288 289 289 288 288 288 287 288 288 289 290 291 292 292 293 293 293 293 295 298 301 305 307 309 310 309 306 304 304 308 310 308
321 318 315 311 306 302 299 296 293 289 286 283 281 279 276 274 273 272 270 268 264 260 256 254 253 253 253 253 254 254 254 253 253 253 253 252 250 249 249 250 251 253 256 259 262 264 266 267 270 274 280 285 289 291 291 291 290 290 289 290 290 291 292 294 295 295 296 296 295 295 296 297 299 301 304 308 310 312 311 308 304 305 310 311 309
319 320 320 318 314 309 304 300 299 297 294 291 288 284 280 275 272 269 267 265 263 261 257 254 253 253 252 252 252 252 251 251 250 249 247 246 245 245 246 248 250 253 256 258 260 262 264 267 271 277 283 290 295 296 296 294 293 292 292 293 294 295 296 298 298 299 299 299 298 297 297 297 297 298 302 307 312 315 316 313 308 307 311 312 309
Height
5735 5736 5739 5743 5745 5746 5748 5748 5749 5749 5750 5751 5750 5750 5751 5752 5753 5753 5753 5754 5755 5757 5759 5760 5761 5762 5765 5767 5769 5771 5773 5774 5776 5777 5778 5779 5780 5781 5782 5782 5783 5784 5784 5785 5785 5785 5786 5786 5786 5786 5787 5788 5788 5789 5789 5790 5791 5792 5792 5793 5794 5794 5794 5795 5794 5794 5795 5796 5796 5795 5795 5795 5794 5794 5794 5793 5793 5793 5793 5793 5793 5792 5792 5791 5791
5735 5737 5740 5743 5744 5744 5744 5745 5746 5746 5747 5748 5748 5747 5748 5750 5752 5752 5751 5753 5754 5755 5757 5758 5759 5761 5763 5765 5767 5769 5770 5772 5773 5774 5775 5776 5777 5778 5779 5780 5780 5781 5781 5782 5783 5783 5783 5784 5784 5784 5784 5785 5786 5786 5787 5788 5789 5790 5790 5791 5792 5792 5793 5793 5793 5793 5793 5793 5794 5793 5793 5793 5792 5792 5792 5792 5791 5791 5791 5791 5790 5789 5789 5789 5789
5735 5736 5737 5739 5741 5741 5741 5742 5743 5743 5744 5745 5745 5745 5746 5748 5750 5750 5751 5752 5753 5754 5756 5757 5758 5759 5761 5763 5765 5767 5768 5770 5771 5772 5773 5774 5774 5775 5776 5777 5777 5778 5779 5779 5780 5780 5781 5781 5781 5781 5782 5783 5783 5784 5785 5785 5786 5787 5788 5789 5790 5791 5791 5791 5791 5791 5790 5791 5791 5791 5791 5790 5790 5790 5790 5790 5789 5789 5789 5788 5788 5787 5787 5787 5786
5734 5735 5736 5737 5739 5739 5739 5739 5740 5740 5741 5742 5742 5743 5744 5745 5747 5748 5749 5751 5752 5753 5754 5754 5755 5757 5758 5760 5762 5764 5766 5767 5768 5769 5770 5771 5772 5773 5773 5774 5774 5775 5776 5777 5777 5778 5778 5778 5779 5779 5780 5780 5780 5781 5782 5783 5784 5785 5786 5787 5788 5789 5789 5789 5789 5789 5789 5788 5789 5789 5789 5788 5788 5788 5788 5787 5787 5787 5786 5786 5785 5785 5785 5785 5784
5733 5734 5735 5736 5737 5738 5737 5737 5737 5737 5738 5739 5739 5741 5741 5742 5744 5745 5746 5748 5749 5750 5751 5751 5752 5754 5755 5757 5759 5761 5763 5764 5765 5766 5767 5768 5769 5770 5770 5770 5771 5772 5773 5774 5775 5775 5775 5775 5776 5777 5777 5778 5778 5779 5780 5781 5782 5783 5784 5785 5786 5787 5787 5787 5787 5787 5787 5787 5786 5786 5786 5786 5785 5785 5785 5784 5784 5784 5784 5783 5783 5783 5782 5782 5782
5731 5732 5734 5735 5735 5735 5735 5735 5734 5734 5735 5736 5737 5739 5739 5740 5742 5742 5743 5745 5746 5746 5747 5747 5748 5750 5752 5755 5757 5759 5760 5761 5762 5763 5764 5765 5766 5767 5767 5767 5768 5769 5770 5771 5772 5772 5772 5773 5774 5774 5775 5775 5776 5777 5778 5779 5780 5780 5781 5782 5783 5784 5785 5785 5784 5784 5785 5785 5784 5783 5783 5783 5783 5782 5782 5782 5781 5781 5781 5781 5781 5780 5780 5780 5779
5729 5730 5732 5732 5731 5731 5732 5732 5732 5731 5732 5733 5735 5736 5737 5738 5739 5740 5741 5743 5743 5743 5743 5743 5744 5747 5750 5752 5754 5756 5757 5758 5759 5761 5762 5762 5763 5764 5764 5764 5765 5766 5767 5768 5768 5769 5770 5771 5771 5772 5772 5773 5774 5775 5776 5777 5777 5778 5778 5779 5780 5781 5781 5782 5781 5781 5781 5782 5782 5781 5780 5780 5780 5779 5779 5779 5778 5778 5777 5777 5777 5776 5776 5776 5775
5727 5727 5728 5728 5728 5728 5729 5730 5729 5729 5729 5731 5733 5734 5735 5736 5737 5737 5739 5740 5740 5739 5739 5740 5742 5745 5747 5750 5751 5752 5753 5755 5757 5758 5759 5760 5760 5761 5761 5762 5762 5763 5764 5765 5765 5766 5767 5768 5768 5770 5770 5770 5771 5772 5773 5774 5774 5775 5776 5776 5776 5777 5778 5778 5778 5778 5778 5778 5779 5778 5777 5776 5776 5775 5775 5775 5775 5774 5774 5774 5773 5772 5772 5772 5771
5724 5724 5724 5724 5724 5726 5727 5727 5727 5727 5727 5729 5731 5732 5733 5734 5735 5736 5736 5737 5737 5736 5736 5738 5740 5743 5745 5747 5748 5749 5750 5752 5754 5755 5756 5757 5757 5758 5758 5758 5760 5761 5761 5761 5762 5763 5764 5765 5766 5767 5768 5768 5768 5769 5770 5771 5772 5772 5773 5772 5772 5773 5774 5775 5775 5775 5775 5775 5775 5775 5774 5773 5772 5772 5772 5771 5770 5770 5769 5770 5770 5768 5768 5768 5768
5721 5721 5721 5721 5721 5721 5723 5724 5725 5726 5726 5727 5728 5729 5731 5732 5732 5733 5733 5733 5733 5734 5734 5736 5739 5740 5742 5744 5745 5745 5747 5749 5750 5752 5753 5754 5754 5754 5754 5755 5757 5758 5758 5758 5759 5760 5761 5762 5763 5765 5766 5766 5766 5766 5767 5768 5769 5769 5769 5769 5769 5769 5770 5771 5771 5772 5771 5771 5770 5770 5770 5769 5769 5768 5768 5768 5767 5766 5765 5765 5765 5764 5763 5763 5763
5718 5718 5718 5718 5717 5717 5718 5719 5720 5722 5723 5723 5724 5725 5727 5728 5728 5729 5729 5729 5730 5731 5733 5735 5736 5738 5740 5741 5741 5742 5744 5746 5747 5748 5749 5749 5750 5750 5751 5752 5753 5755 5755 5756 5756 5757 5758 5759 5760 5762 5763 5763 5763 5763 5764 5765 5766 5766 5766 5766 5765 5765 5765 5766 5767 5768 5768 5766 5766 5766 5766 5765 5765 5765 5764 5764 5763 5763 5762 5761 5761 5760 5759 5759 5759
5715 5715 5714 5714 5713 5713 5714 5715 5716 5717 5718 5719 5720 5721 5723 5725 5725 5725 5726 5726 5727 5729 5731 5733 5734 5735 5737 5737 5738 5739 5741 5742 5743 5744 5745 5746 5746 5747 5747 5748 5750 5751 5752 5753 5754 5754 5755 5756 5758 5759 5759 5759 5760 5760 5760 5761 5761 5762 5762 5762 5762 5761 5761 5762 5762 5763 5763 5763 5762 5762 5761 5761 5760 5760 5760 5759 5759 5758 5757 5757 5756 5755 5755 5754 5754
5711 5711 5710 5710 5710 5710 5710 5712 5713 5714 5715 5715 5716 5717 5719 5720 5722 5723 5723 5724 5725 5727 5729 5730 5731 5732 5734 5734 5735 5736 5737 5739 5740 5741 5742 5742 5743 5744 5744 5744 5746 5748 5749 5750 5752 5752 5753 5754 5755 5755 5755 5756 5756 5756 5756 5756 5757 5758 5759 5759 5759 5758 5758 5759 5759 5758 5758 5758 5758 5757 5757 5756 5755 5755 5754 5754 5753 5753 5752 5751 5751 5750 5749 5749 5748
5706 5707 5707 5707 5707 5706 5707 5708 5709 5710 5711 5712 5713 5714 5715 5717 5719 5720 5720 5722 5723 5724 5726 5727 5728 5729 5730 5730 5731 5732 5734 5736 5737 5738 5739 5739 5740 5740 5741 5741 5742 5744 5746 5748 5749 5750 5750 5751 5751 5751 5751 5752 5752 5753 5753 5753 5753 5754 5755 5755 5756 5755 5755 5754 5754 5754 5753 5752 5752 5752 5751 5751 5750 5749 5749 5748 5748 5748 5747 5746 5746 5745 5744 5743 5742
5702 5703 5703 5703 5703 5703 5703 5705 5706 5706 5707 5708 5709 5711 5713 5715 5716 5717 5718 5719 5720 5721 5723 5724 5724 5725 5726 5726 5728 5729 5730 5732 5734 5735 5736 5737 5737 5737 5737 5738 5739 5741 5743 5744 5745 5746 5747 5748 5748 5747 5747 5747 5748 5748 5749 5749 5749 5749 5750 5750 5751 5751 5751 5750 5749 5749 5748 5747 5747 5746 5746 5745 5745 5744 5743 5743 5742 5741 5741 5741 5740 5739 5738 5737 5736
5699 5700 5700 5700 5699 5699 5700 5701 5702 5701 5703 5705 5706 5708 5710 5711 5712 5713 5714 5715 5716 5718 5719 5720 5721 5721 5722 5723 5724 5726 5727 5729 5730 5731 5732 5733 5734 5734 5734 5735 5736 5738 5739 5740 5742 5743 5743 5744 5744 5744 5743 5743 5743 5743 5744 5744 5744 5744 5745 5745 5745 5745 5746 5745 5745 5744 5744 5743 5743 5742 5741 5740 5740 5739 5739 5739 5738 5736 5735 5735 5734 5734 5733 5732 5731
5696 5697 5697 5696 5696 5696 5696 5697 5697 5697 5699 5701 5703 5704 5706 5707 5708 5709 5710 5711 5713 5714 5715 5716 5717 5718 5719 5719 5721 5723 5724 5725 5726 5727 5728 5729 5730 5731 5732 5732 5733 5734 5735 5736 5737 5738 5739 5740 5740 5740 5740 5739 5739 5739 5739 5739 5739 5739 5740 5740 5740 5740 5740 5740 5740 5740 5739 5739 5738 5738 5737 5736 5735 5735 5734 5735 5734 5733 5732 5731 5730 5729 5728 5727 5726
5693 5693 5693 5692 5692 5692 5691 5692 5692 5693 5695 5697 5699 5701 5702 5703 5704 5705 5706 5708 5709 5710 5712 5713 5714 5715 5716 5716 5717 5719 5720 5721 5723 5723 5724 5725 5726 5727 5728 5729 5730 5730 5731 5732 5732 5733 5734 5735 5735 5736 5736 5736 5735 5735 5734 5734 5735 5735 5735 5735 5735 5736 5735 5735 5735 5735 5734 5734 5733 5733 5732 5732 5731 5730 5729 5729 5729 5728 5727 5726 5725 5723 5722 5720 5719
5691 5690 5689 5688 5687 5687 5686 5686 5688 5690 5692 5693 5695 5697 5698 5700 5701 5702 5703 5705 5706 5707 5708 5709 5710 5711 5712 5713 5714 5715 5716 5718 5719 5720 5720 5721 5722 5723 5724 5725 5726 5727 5727 5728 5728 5728 5729 5730 5731 5731 5731 5731 5731 5731 5730 5731 5731 5731 5731 5731 5731 5731 5731 5731 5731 5730 5730 5729 5728 5728 5727 5726 5726 5725 5724 5723 5723 5722 5721 5720 5718 5717 5715 5713 5712
5688 5687 5686 5686 5684 5683 5683 5683 5684 5687 5688 5689 5691 5693 5694 5696 5698 5699 5701 5702 5702 5703 5705 5706 5707 5708 5709 5710 5710 5711 5713 5714 5715 5716 5717 5718 5718 5719 5719 5720 5721 5722 5723 5724 5724 5724 5724 5725 5726 5727 5727 5727 5727 5726 5726 5726 5726 5727 5727 5727 5727 5727 5727 5727 5726 5726 5725 5724 5723 5723 5722 5721 5721 5720 5718 5717 5716 5715 5714 5713 5712 5710 5708 5707 5705
5685 5685 5684 5683 5682 5681 5681 5681 5681 5682 5683 5685 5687 5688 5690 5692 5693 5695 5697 5698 5699 5700 5701 5703 5704 5704 5705 5705 5706 5708 5709 5710 5711 5713 5714 5715 5715 5715 5715 5716 5717 5718 5719 5719 5720 5720 5720 5720 5720 5721 5722 5722 5722 5722 5722 5722 5722 5722 5723 5723 5723 5723 5723 5722 5722 5721 5720 5719 5718 5718 5717 5716 5715 5714 5713 5711 5709 5708 5708 5706 5704 5702 5700 5700 5698
5682 5682 5682 5682 5681 5679 5678 5679 5679 5679 5680 5681 5683 5684 5686 5687 5689 5691 5692 5693 5694 5696 5697 5699 5699 5700 5701 5701 5702 5704 5705 5706 5707 5709 5710 5710 5711 5711 5711 5712 5713 5714 5714 5715 5715 5715 5716 5716 5716 5717 5717 5718 5718 5718 5718 5718 5718 5718 5718 5718 5718 5718 5717 5717 5717 5716 5715 5714 5713 5712 5711 5710 5709 5708 5707 5705 5704 5702 5700 5698 5696 5694 5693 5692 5691
5679 5679 5679 5679 5679 5678 5677 5676 5677 5677 5679 5680 5681 5681 5682 5683 5686 5688 5689 5689 5690 5692 5693 5694 5695 5696 5697 5697 5698 5700 5701 5702 5703 5704 5705 5705 5705 5706 5706 5707 5708 5709 5710 5710 5710 5710 5711 5711 5712 5712 5713 5713 5714 5714 5714 5713 5713 5713 5713 5713 5713 5712 5712 5712 5711 5710 5709 5708 5707 5706 5705 5704 5703 5702 5700 5699 5697 5695 5693 5690 5689 5687 5685 5683 5682
5675 5676 5676 5676 5677 5677 5676 5675 5675 5675 5677 5678 5679 5679 5680 5681 5683 5684 5685 5686 5688 5688 5689 5690 5691 5692 5693 5693 5694 5696 5697 5697 5698 5699 5700 5700 5700 5701 5702 5702 5703 5703 5704 5705 5705 5706 5706 5707 5707 5708 5709 5709 5709 5709 5708 5708 5708 5708 5708 5707 5707 5707 5706 5706 5705 5705 5704 5703 5701 5700 5699 5698 5696 5695 5693 5692 5690 5688 5686 5683 5681 5680 5678 5676 5673
5672 5672 5673 5673 5674 5674 5674 5674 5674 5674 5674 5675 5676 5677 5678 5679 5680 5680 5681 5682 5684 5684 5684 5685 5686 5688 5689 5690 5690 5691 5692 5693 5693 5693 5695 5695 5696 5696 5697 5697 5698 5698 5699 5700 5700 5701 5701 5702 5703 5703 5704 5704 5704 5704 5703 5703 5703 5703 5702 5702 5701 5701 5700 5700 5699 5699 5698 5696 5695 5694 5693 5691 5690 5688 5686 5684 5683 5681 5679 5676 5674 5671 5670 5668 5665
5668 5669 5669 5669 5670 5671 5671 5671 5671 5671 5671 5672 5673 5674 5674 5674 5675 5676 5677 5677 5678 5679 5680 5681 5682 5684 5685 5686 5686 5686 5687 5687 5688 5688 5689 5690 5691 5692 5693 5693 5693 5694 5695 5695 5696 5697 5697 5698 5698 5699 5699 5698 5699 5698 5698 5698 5698 5697 5697 5696 5696 5695 5695 5694 5693 5692 5691 5689 5688 5687 5685 5684 5682 5681 5679 5677 5675 5672 5670 5668 5666 5663 5661 5659 5656
5664 5665 5665 5666 5666 5667 5667 5668 5667 5667 5668 5669 5670 5670 5671 5671 5671 5671 5672 5673 5673 5674 5675 5677 5678 5680 5681 5681 5681 5681 5682 5682 5683 5684 5685 5686 5687 5688 5689 5689 5689 5690 5691 5691 5692 5692 5693 5693 5693 5693 5693 5693 5693 5692 5692 5692 5692 5692 5691 5691 5690 5689 5688 5687 5686 5685 5684 5683 5681 5680 5678 5677 5675 5673 5671 5669 5667 5664 5662 5660 5658 5655 5652 5649 5646
5660 5660 5661 5661 5662 5662 5663 5664 5664 5664 5664 5665 5666 5667 5668 5668 5668 5668 5669 5669 5670 5671 5672 5673 5674 5675 5676 5676 5676 5677 5678 5678 5679 5679 5680 5682 5683 5684 5684 5685 5685 5686 5686 5687 5687 5687 5687 5687 5687 5687 5687 5687 5687 5686 5686 5686 5686 5685 5685 5684 5683 5682 5681 5680 5680 5678 5677 5676 5675 5673 5672 5670 5668 5666 5664 5661 5659 5656 5653 5650 5648 5645 5642 5639 5635
5657 5657 5657 5657 5657 5658 5659 5660 5660 5661 5661 5661 5662 5663 5664 5665 5665 5666 5666 5666 5667 5668 5669 5669 5670 5671 5672 5672 5673 5673 5674 5674 5675 5676 5676 5677 5678 5679 5680 5680 5680 5681 5681 5681 5681 5681 5681 5681 5681 5681 5681 5681 5681 5680 5680 5680 5679 5678 5678 5677 5676 5675 5674 5673 5673 5672 5671 5669 5668 5666 5664 5662 5660 5658 5655 5653 5650 5647 5644 5640 5637 5634 5631 5628 5624
5652 5652 5653 5654 5654 5654 5655 5655 5656 5657 5657 5657 5658 5658 5660 5661 5661 5662 5663 5663 5663 5664 5665 5665 5666 5667 5667 5668 5669 5670 5670 5671 5671 5672 5672 5673 5673 5675 5675 5675 5675 5675 5675 5675 5675 5675 5675 5675 5675 5675 5675 5674 5674 5674 5673 5673 5673 5672 5671 5670 5669 5669 5668 5667 5666 5665 5663 5662 5660 5658 5656 5654 5652 5649 5647 5644 5641 5638 5634 5630 5627 5624 5620 5617 5613
5646 5646 5647 5649 5649 5649 5650 5651 5652 5653 5653 5654 5654 5654 5654 5655 5656 5657 5658 5658 5659 5660 5661 5661 5662 5662 5662 5663 5664 5665 5666 5666 5666 5666 5667 5667 5668 5669 5669 5669 5669 5669 5669 5670 5670 5670 5670 5670 5669 5669 5668 5668 5668 5667 5667 5666 5666 5665 5664 5664 5663 5663 5662 5660 5659 5657 5656 5654 5652 5650 5648 5646 5643 5641 5638 5635 5632 5629 5624 5620 5617 5613 5610 5607 5603
5641 5641 5641 5642 5643 5644 5645 5645 5646 5647 5648 5649 5649 5649 5650 5650 5651 5651 5652 5653 5654 5655 5656 5656 5657 5657 5657 5658 5659 5660 5661 5661 5660 5660 5660 5661 5663 5663 5663 5662 5663 5663 5663 5664 5664 5664 5664 5664 5663 5663 5662 5662 5662 5661 5660 5660 5660 5659 5658 5657 5657 5656 5655 5653 5652 5650 5648 5646 5645 5642 5640 5637 5635 5632 5629 5626 5623 5620 5616 5612 5608 5604 5600 5597 5593
5636 5636 5636 5637 5637 5638 5639 5640 5640 5641 5643 5643 5644 5644 5645 5645 5646 5646 5647 5648 5648 5649 5650 5651 5651 5651 5652 5653 5654 5655 5655 5655 5654 5654 5655 5656 5657 5657 5656 5656 5657 5657 5657 5658 5658 5658 5657 5657 5657 5657 5656 5656 5655 5655 5654 5654 5653 5652 5651 5650 5649 5648 5647 5646 5644 5642 5640 5639 5637 5634 5632 5629 5626 5623 5620 5617 5614 5610 5607 5603 5599 5595 5591 5588 5584
5631 5631 5631 5631 5631 5632 5633 5634 5634 5635 5636 5637 5638 5638 5639 5639 5640 5640 5641 5642 5642 5643 5643 5643 5644 5645 5646 5648 5649 5649 5648 5648 5649 5649 5649 5650 5651 5651 5651 5651 5651 5651 5651 5651 5651 5651 5651 5651 5650 5650 5650 5649 5649 5648 5647 5647 5646 5645 5644 5643 5642 5640 5639 5638 5636 5634 5633 5631 5629 5626 5623 5620 5617 5614 5611 5608 5605 5601 5598 5594 5591 5587 5584 5580 5577
5625 5626 5626 5626 5626 5626 5627 5628 5629 5630 5630 5631 5632 5633 5633 5634 5634 5635 5636 5636 5636 5636 5636 5637 5638 5640 5641 5642 5642 5642 5642 5642 5643 5643 5644 5645 5645 5645 5645 5645 5645 5645 5645 5645 5644 5644 5644 5644 5644 5643 5643 5642 5642 5641 5640 5639 5639 5638 5637 5636 5635 5633 5632 5630 5628 5626 5625 5623 5620 5618 5615 5613 5610 5606 5603 5600 5596 5593 5590 5586 5583 5580 5576 5573 5569
5618 5619 5620 5620 5620 5620 5621 5622 5623 5624 5625 5625 5626 5627 5627 5628 5628 5629 5630 5631 5630 5630 5630 5632 5633 5634 5635 5636 5636 5635 5635 5636 5637 5637 5638 5638 5639 5639 5639 5639 5639 5639 5638 5638 5638 5639 5639 5638 5638 5637 5636 5635 5635 5634 5633 5632 5632 5631 5630 5629 5628 5626 5625 5623 5621 5619 5617 5615 5613 5610 5607 5605 5602 5599 5596 5592 5589 5586 5582 5579 5575 5572 5569 5565 5562
5610 5612 5614 5614 5614 5615 5615 5616 5616 5617 5618 5619 5620 5621 5621 5621 5622 5623 5624 5625 5625 5625 5625 5627 5628 5629 5629 5630 5630 5629 5629 5630 5631 5632 5632 5632 5632 5633 5633 5633 5633 5632 5632 5632 5633 5633 5632 5632 5631 5630 5630 5629 5628 5627 5627 5626 5625 5624 5623 5622 5621 5619 5617 5616 5614 5612 5610 5608 5605 5603 5600 5597 5594 5591 5588 5585 5581 5578 5575 5572 5568 5565 5562 5559 5556
5603 5605 5606 5608 5608 5609 5609 5609 5609 5609 5610 5611 5613 5614 5614 5615 5616 5617 5618 5619 5619 5619 5619 5621 5623 5623 5623 5623 5623 5623 5623 5625 5626 5626 5627 5627 5626 5626 5627 5627 5627 5626 5625 5625 5626 5626 5626 5625 5625 5624 5623 5623 5622 5621 5620 5620 5619 5618 5617 5615 5613 5612 5610 5609 5607 5605 5603 5601 5598 5596 5593 5590 5586 5583 5580 5576 5573 5570 5567 5564 5561 5558 5556 5553 5550
5595 5597 5598 5600 5601 5602 5602 5601 5601 5601 5602 5603 5605 5606 5607 5608 5609 5610 5611 5612 5612 5612 5613 5615 5616 5617 5616 5615 5616 5617 5617 5618 5619 5620 5620 5620 5620 5620 5620 5621 5621 5620 5619 5619 5619 5619 5618 5618 5618 5617 5617 5616 5615 5615 5614 5613 5612 5611 5610 5608 5607 5605 5603 5602 5600 5599 5597 5594 5592 5589 5586 5582 5578 5575 5572 5569 5567 5564 5561 5559 5556 5553 5550 5548 5545
5587 5588 5589 5591 5592 5594 5594 5594 5594 5595 5595 5595 5597 5598 5599 5601 5601 5602 5603 5604 5605 5605 5606 5608 5609 5610 5610 5608 5608 5610 5611 5611 5612 5613 5613 5613 5614 5614 5614 5614 5614 5613 5613 5613 5612 5612 5612 5612 5611 5611 5610 5609 5609 5608 5607 5606 5605 5605 5604 5602 5600 5598 5597 5596 5594 5592 5590 5587 5584 5581 5578 5574 5571 5569 5566 5564 5561 5559 5556 5554 5551 5548 5545 5543 5541
5580 5580 5581 5582 5584 5585 5585 5586 5587 5588 5588 5588 5589 5590 5591 5593 5594 5595 5596 5597 5598 5599 5599 5600 5602 5603 5603 5602 5602 5603 5604 5604 5605 5605 5606 5606 5607 5607 5607 5607 5607 5607 5607 5606 5606 5606 5606 5605 5605 5604 5604 5603 5602 5602 5601 5600 5599 5599 5598 5596 5594 5592 5591 5589 5587 5585 5582 5580 5577 5574 5571 5568 5566 5564 5562 5559 5557 5555 5552 5550 5547 5544 5541 5539 5537
5574 5574 5574 5575 5577 5577 5577 5577 5579 5581 5581 5581 5582 5582 5583 5584 5586 5587 5589 5590 5591 5592 5592 5593 5594 5595 5596 5595 5595 5595 5596 5597 5598 5598 5599 5599 5600 5600 5600 5600 5600 5600 5600 5600 5600 5600 5600 5599 5598 5598 5598 5597 5597 5596 5595 5594 5594 5593 5592 5590 5588 5586 5584 5582 5580 5577 5575 5572 5570 5568 5565 5563 5561 5559 5557 5555 5552 5550 5548 5545 5542 5539 5537 5535 5533
5569 5569 5569 5570 5570 5570 5570 5570 5572 5573 5573 5574 5574 5574 5575 5577 5578 5580 5581 5582 5583 5584 5585 5586 5587 5588 5589 5589 5589 5589 5590 5591 5591 5592 5592 5593 5593 5593 5593 5594 5594 5594 5594 5594 5594 5594 5593 5593 5592 5592 5592 5592 5591 5590 5589 5589 5588 5587 5585 5584 5582 5579 5577 5575 5573 5570 5568 5566 5564 5562 5560 5558 5556 5554 5552 5550 5548 5545 5543 5540 5538 5535 5533 5531 5529
5566 5565 5565 5565 5565 5564 5564 5565 5566 5566 5566 5566 5566 5567 5568 5569 5571 5572 5573 5574 5576 5577 5578 5578 5580 5581 5582 5582 5583 5583 5584 5584 5585 5585 5586 5587 5587 5587 5587 5588 5588 5588 5588 5588 5588 5588 5588 5587 5587 5587 5587 5586 5585 5584 5584 5583 5582 5581 5579 5577 5575 5573 5571 5569 5567 5565 5563 5561 5559 5557 5555 5553 5551 5549 5548 5545 5543 5541 5538 5536 5533 5531 5529 5528 5526
5562 5562 5561 5561 5561 5560 5560 5560 5561 5560 5559 5559 5560 5560 5561 5562 5563 5564 5565 5567 5568 5569 5570 5571 5572 5573 5574 5575 5576 5577 5578 5578 5579 5580 5580 5581 5581 5582 5582 5582 5582 5583 5583 5583 5583 5583 5582 5582 5582 5581 5581 5581 5580 5579 5578 5577 5576 5575 5573 5572 5570 5568 5566 5564 5562 5560 5558 5556 5554 5552 5551 5549 5547 5545 5543 5541 5539 5536 5534 5532 5529 5528 5526 5524 5523
5559 5559 5558 5558 5557 5557 5557 5557 5557 5555 5555 5555 5555 5555 5555 5556 5557 5557 5558 5559 5560 5561 5563 5564 5565 5566 5567 5568 5569 5571 5571 5572 5573 5574 5575 5575 5576 5576 5577 5577 5577 5577 5578 5578 5578 5578 5577 5577 5577 5576 5576 5576 5575 5574 5573 5572 5570 5569 5568 5566 5564 5562 5561 5559 5557 5555 5553 5551 5550 5548 5546 5544 5543 5541 5539 5537 5534 5532 5530 5528 5526 5524 5523 5522 5520
5557 5556 5555 5554 5554 5554 5554 5554 5553 5552 5551 5551 5551 5551 5551 5551 5551 5552 5553 5553 5554 5555 5556 5557 5558 5560 5561 5562 5563 5564 5565 5566 5567 5568 5569 5569 5570 5571 5571 5572 5572 5572 5572 5572 5573 5573 5573 5573 5572 5572 5571 5571 5570 5569 5568 5567 5566 5564 5562 5561 5559 5557 5555 5554 5552 5550 5549 5547 5545 5543 5542 5540 5539 5537 5535 5533 5531 5529 5527 5525 5523 5522 5520 5519 5517
5555 5554 5553 5552 5551 5551 5551 5551 5550 5549 5548 5547 5547 5547 5547 5547 5547 5548 5548 5548 5549 5549 5550 5551 5552 5553 5555 5556 5557 5558 5559 5560 5561 5562 5563 5564 5564 5565 5566 5566 5567 5567 5567 5568 5568 5568 5569 5568 5568 5567 5567 5566 5565 5565 5564 5562 5561 5559 5558 5556 5554 5552 5551 5549 5547 5546 5544 5542 5541 5539 5538 5536 5535 5533 5531 5529 5528 5526 5524 5522 5520 5519 5518 5516 5515
5554 5552 5551 5550 5549 5549 5548 5548 5547 5546 5545 5544 5544 5543 5543 5543 5543 5544 5544 5545 5545 5545 5546 5546 5547 5548 5549 5550 5551 5553 5554 5555 5556 5557 5558 5559 5559 5560 5561 5561 5562 5563 5563 5563 5564 5564 5564 5564 5564 5563 5563 5562 5561 5560 5559 5558 5556 5554 5553 5551 5549 5548 5546 5544 5543 5541 5540 5538 5536 5535 5534 5532 5531 5530 5528 5527 5525 5523 5521 5519 5518 5517 5515 5514 5512
5552 5551 5549 5548 5547 5546 5546 5545 5544 5543 5542 5541 5540 5540 5540 5540 5540 5540 5540 5541 5541 5541 5541 5542 5543 5544 5545 5546 5547 5548 5549 5550 5551 5552 5554 5554 5555 5556 5557 5557 5558 5559 5559 5559 5560 5560 5560 5560 5560 5560 5559 5558 5557 5556 5554 5552 5551 5549 5548 5546 5545 5543 5542 5540 5539 5537 5535 5534 5533 5531 5530 5529 5528 5527 5526 5524 5522 5520 5519 5517 5516 5514 5513 5512 5510
5551 5550 5548 5547 5546 5545 5544 5543 5542 5541 5539 5538 5538 5537 5536 5536 5536 5536 5536 5537 5537 5537 5537 5538 5539 5540 5541 5542 5543 5544 5545 5546 5547 5548 5550 5550 5551 5552 5553 5554 5554 5555 5555 5556 5556 5556 5556 5556 5556 5556 5555 5554 5553 5551 5549 5548 5546 5545 5543 5542 5540 5539 5538 5536 5535 5533 5532 5531 5529 5528 5527 5526 5525 5524 5523 5522 5520 5518 5517 5515 5514 5512 5511 5510 5508